TimeCST,TemperatureF,Dew PointF,Humidity,Sea Level PressureIn,VisibilityMPH,Wind Direction,Wind SpeedMPH,Gust SpeedMPH,PrecipitationIn,Events,Conditions,WindDirDegrees,DateUTC
12:15 AM,4.1,-1.3,78,30.44,10.0,NNE,6.9,-,N/A,,Clear,20,2014-03-06 06:15:00
12:35 AM,3.7,-0.9,81,30.44,10.0,NNE,5.8,-,N/A,,Clear,30,2014-03-06 06:35:00
12:55 AM,3.9,-0.8,81,30.44,10.0,NNE,5.8,-,N/A,,Clear,30,2014-03-06 06:55:00
1:15 AM,3.7,-1.1,80,30.44,10.0,NNE,4.6,-,N/A,,Clear,30,2014-03-06 07:15:00
1:35 AM,1.9,-3.5,78,30.44,10.0,East,5.8,-,N/A,,Clear,80,2014-03-06 07:35:00
1:55 AM,3.7,-0.9,81,30.44,10.0,East,5.8,-,N/A,,Clear,90,2014-03-06 07:55:00
2:15 AM,5.4,0.7,81,30.43,10.0,East,5.8,-,N/A,,Clear,90,2014-03-06 08:15:00
2:35 AM,5.4,0.7,81,30.42,10.0,East,6.9,-,N/A,,Clear,90,2014-03-06 08:35:00
2:55 AM,5.9,1.4,82,30.41,10.0,East,6.9,-,N/A,,Clear,90,2014-03-06 08:55:00
3:15 AM,5.7,1.2,82,30.40,10.0,East,5.8,-,N/A,,Clear,100,2014-03-06 09:15:00
3:35 AM,6.1,1.9,83,30.40,10.0,East,5.8,-,N/A,,Clear,100,2014-03-06 09:35:00
3:55 AM,6.8,2.5,82,30.39,10.0,East,4.6,-,N/A,,Clear,100,2014-03-06 09:55:00
4:10 AM,8.1,3.9,83,30.39,10.0,East,4.6,-,N/A,,Clear,90,2014-03-06 10:10:00
4:35 AM,8.1,4.1,84,30.40,10.0,East,3.5,-,N/A,,Clear,90,2014-03-06 10:35:00
4:55 AM,8.4,4.3,83,30.39,10.0,East,4.6,-,N/A,,Clear,100,2014-03-06 10:55:00
5:15 AM,8.1,3.7,83,30.38,10.0,East,5.8,-,N/A,,Clear,100,2014-03-06 11:15:00
5:35 AM,7.5,3.2,82,30.38,10.0,East,4.6,-,N/A,,Clear,100,2014-03-06 11:35:00
5:55 AM,7.3,3.0,82,30.38,10.0,East,5.8,-,N/A,,Clear,100,2014-03-06 11:55:00
6:15 AM,8.1,3.9,83,30.38,10.0,East,5.8,-,N/A,,Clear,100,2014-03-06 12:15:00
6:35 AM,8.4,4.5,84,30.37,7.0,ESE,5.8,-,N/A,,Clear,110,2014-03-06 12:35:00
6:55 AM,9.1,5.0,83,30.37,5.0,ESE,4.6,-,N/A,,Clear,110,2014-03-06 12:55:00
7:15 AM,10.4,6.8,85,30.37,10.0,East,4.6,-,N/A,,Clear,100,2014-03-06 13:15:00
7:35 AM,11.1,7.5,85,30.37,10.0,ESE,4.6,-,N/A,,Clear,110,2014-03-06 13:35:00
7:55 AM,12.0,8.6,86,30.36,10.0,ESE,5.8,-,N/A,,Clear,110,2014-03-06 13:55:00
8:15 AM,13.1,9.7,86,30.35,10.0,East,5.8,-,N/A,,Clear,100,2014-03-06 14:15:00
8:35 AM,14.4,11.5,88,30.34,10.0,ESE,5.8,-,N/A,,Clear,110,2014-03-06 14:35:00
8:50 AM,15.4,12.7,89,30.34,10.0,ESE,4.6,-,N/A,,Clear,120,2014-03-06 14:50:00
9:15 AM,17.8,14.9,88,30.33,10.0,ESE,5.8,-,N/A,,Clear,120,2014-03-06 15:15:00
9:35 AM,19.4,14.0,80,30.33,10.0,ESE,8.1,-,N/A,,Clear,110,2014-03-06 15:35:00
9:55 AM,20.8,11.3,67,30.32,10.0,ESE,9.2,-,N/A,,Clear,120,2014-03-06 15:55:00
10:15 AM,21.9,10.2,61,30.31,10.0,ESE,8.1,-,N/A,,Clear,110,2014-03-06 16:15:00
10:35 AM,22.6,9.9,58,30.30,10.0,ESE,8.1,-,N/A,,Clear,120,2014-03-06 16:35:00
10:55 AM,23.0,10.0,58,30.29,10.0,SE,5.8,-,N/A,,Clear,140,2014-03-06 16:55:00
11:15 AM,23.5,9.3,55,30.29,10.0,SSE,5.8,-,N/A,,Clear,150,2014-03-06 17:15:00
11:35 AM,24.3,8.6,51,30.29,10.0,SSE,6.9,-,N/A,,Clear,160,2014-03-06 17:35:00
11:55 AM,24.4,8.8,51,30.28,10.0,SSE,8.1,-,N/A,,Clear,150,2014-03-06 17:55:00
12:15 PM,24.6,8.1,49,30.27,10.0,SSE,9.2,-,N/A,,Clear,150,2014-03-06 18:15:00
12:35 PM,25.3,8.8,50,30.25,10.0,SSE,9.2,-,N/A,,Clear,160,2014-03-06 18:35:00
12:55 PM,25.5,8.1,48,30.24,10.0,SSE,9.2,-,N/A,,Clear,150,2014-03-06 18:55:00
1:15 PM,26.4,8.2,46,30.22,10.0,SSE,10.4,-,N/A,,Clear,160,2014-03-06 19:15:00
1:35 PM,27.0,8.6,46,30.21,10.0,SSE,6.9,-,N/A,,Clear,150,2014-03-06 19:35:00
1:55 PM,27.0,9.1,47,30.20,10.0,SSE,6.9,-,N/A,,Clear,150,2014-03-06 19:55:00
2:15 PM,27.5,8.2,44,30.19,10.0,SSE,8.1,-,N/A,,Clear,150,2014-03-06 20:15:00
2:35 PM,27.7,7.7,43,30.18,10.0,SSE,8.1,-,N/A,,Clear,160,2014-03-06 20:35:00
2:55 PM,27.7,7.3,42,30.19,10.0,South,9.2,-,N/A,,Clear,180,2014-03-06 20:55:00
3:15 PM,28.0,8.1,43,30.18,10.0,SSE,8.1,-,N/A,,Clear,160,2014-03-06 21:15:00
3:35 PM,28.0,7.0,41,30.16,10.0,SSE,9.2,-,N/A,,Clear,160,2014-03-06 21:35:00
3:55 PM,27.9,5.7,39,30.15,10.0,South,9.2,-,N/A,,Clear,170,2014-03-06 21:55:00
4:15 PM,27.5,5.9,40,30.15,10.0,SSE,9.2,-,N/A,,Clear,150,2014-03-06 22:15:00
4:35 PM,25.7,9.3,50,30.16,10.0,SW,8.1,-,N/A,,Clear,220,2014-03-06 22:35:00
4:55 PM,24.8,8.8,51,30.14,10.0,SW,8.1,-,N/A,,Clear,220,2014-03-06 22:55:00
5:15 PM,23.7,8.4,52,30.13,10.0,South,6.9,-,N/A,,Clear,180,2014-03-06 23:15:00
5:35 PM,24.4,9.3,53,30.12,10.0,South,8.1,-,N/A,,Clear,180,2014-03-06 23:35:00
5:55 PM,22.8,9.9,58,30.11,10.0,South,9.2,-,N/A,,Clear,180,2014-03-06 23:55:00
6:15 PM,22.1,10.2,60,30.10,10.0,South,8.1,-,N/A,,Clear,170,2014-03-07 00:15:00
6:35 PM,21.9,10.0,60,30.10,10.0,South,6.9,-,N/A,,Clear,180,2014-03-07 00:35:00
6:55 PM,20.3,9.5,63,30.09,10.0,South,6.9,-,N/A,,Clear,180,2014-03-07 00:55:00
7:15 PM,21.0,10.0,63,30.09,10.0,SSE,6.9,-,N/A,,Clear,160,2014-03-07 01:15:00
7:35 PM,20.3,9.9,64,30.09,10.0,SSE,6.9,-,N/A,,Clear,160,2014-03-07 01:35:00
7:55 PM,19.8,9.5,64,30.08,10.0,SSE,6.9,-,N/A,,Clear,160,2014-03-07 01:55:00
8:15 PM,18.9,9.1,66,30.08,10.0,SSE,8.1,-,N/A,,Clear,150,2014-03-07 02:15:00
8:35 PM,18.3,9.1,67,30.07,10.0,SSE,8.1,-,N/A,,Clear,150,2014-03-07 02:35:00
8:55 PM,18.5,9.1,67,30.07,10.0,SSE,8.1,-,N/A,,Clear,160,2014-03-07 02:55:00
9:15 PM,18.5,9.5,68,30.07,10.0,SSE,8.1,-,N/A,,Clear,150,2014-03-07 03:15:00
9:35 PM,17.6,9.1,69,30.07,10.0,SSE,8.1,-,N/A,,Clear,150,2014-03-07 03:35:00
9:50 PM,17.1,9.1,71,30.06,10.0,SSE,9.2,-,N/A,,Clear,150,2014-03-07 03:50:00
10:15 PM,16.5,9.3,73,30.05,10.0,SSE,9.2,-,N/A,,Clear,150,2014-03-07 04:15:00
10:35 PM,17.1,10.0,74,30.04,10.0,SSE,11.5,-,N/A,,Clear,150,2014-03-07 04:35:00
10:55 PM,17.1,10.0,74,30.04,10.0,SSE,9.2,-,N/A,,Clear,160,2014-03-07 04:55:00
11:15 PM,16.9,9.9,74,30.03,10.0,SSE,9.2,-,N/A,,Clear,150,2014-03-07 05:15:00
11:35 PM,16.7,9.7,74,30.02,10.0,SSE,10.4,-,N/A,,Clear,150,2014-03-07 05:35:00
11:55 PM,18.1,10.9,73,30.02,10.0,SSE,11.5,16.1,N/A,,Clear,160,2014-03-07 05:55:00